| time (UTC) | temp C | wind direction | speed KPH | gust KPH | rain 1hr cm | rain 24hr cm | rain mn cm | humidity % | barometer mb |
| 20260505153020 | 20 | 99 | 3.2 | 9.7 | 0.00 | 0.00 | 0.00 | 62 | 1011.1 |
| 20260505151519 | 21 | 127 | 1.6 | 9.7 | 0.00 | 0.00 | 0.00 | 60 | 1011.2 |
| 20260505124557 | 17 | 177 | 4.8 | 14.5 | 0.00 | 0.00 | 0.00 | 67 | 1011.4 |
| 20260505123103 | 17 | 196 | 4.8 | 11.3 | 0.00 | 0.00 | 0.00 | 69 | 1011.3 |
| 20260505121557 | 17 | 213 | 4.8 | 12.9 | 0.00 | 0.00 | 0.00 | 68 | 1011.2 |
| 20260505120052 | 16 | 142 | 4.8 | 11.3 | 0.00 | 0.00 | 0.00 | 68 | 1011.1 |
| 20260505114551 | 16 | 208 | 4.8 | 12.9 | 0.00 | 0.00 | 0.00 | 69 | 1011.2 |
| 20260505113053 | 16 | 246 | 3.2 | 12.9 | 0.00 | 0.00 | 0.00 | 71 | 1011.3 |
| 20260505111545 | 15 | 220 | 4.8 | 11.3 | 0.00 | 0.00 | 0.00 | 72 | 1011.3 |
| 20260505101536 | 11 | 341 | 1.6 | 3.2 | 0.00 | 0.00 | 0.00 | 86 | 1011.0 |
| 20260505100033 | 11 | 199 | 0.0 | 0.0 | 0.00 | 0.00 | 0.00 | 86 | 1010.6 |
| 20260505094532 | 11 | 200 | 0.0 | 0.0 | 0.00 | 0.00 | 0.00 | 85 | 1010.4 |
| 20260505093036 | 11 | 200 | 0.0 | 0.0 | 0.00 | 0.00 | 0.00 | 85 | 1010.2 |
| 20260505091531 | 11 | 200 | 0.0 | 0.0 | 0.00 | 0.00 | 0.00 | 84 | 1010.2 |
| 20260505090031 | 12 | 200 | 0.0 | 0.0 | 0.00 | 0.00 | 0.00 | 84 | 1010.4 |
| 20260505084531 | 12 | 176 | 0.0 | 0.0 | 0.00 | 0.00 | 0.00 | 85 | 1010.3 |
| 20260505083032 | 11 | 171 | 0.0 | 0.0 | 0.00 | 0.00 | 0.00 | 87 | 1010.2 |
| 20260505081528 | 11 | 171 | 0.0 | 0.0 | 0.00 | 0.00 | 0.00 | 86 | 1010.3 |
| 20260505080027 | 11 | 171 | 0.0 | 0.0 | 0.00 | 0.00 | 0.00 | 86 | 1010.4 |
| 20260505074526 | 11 | 170 | 0.0 | 0.0 | 0.00 | 0.00 | 0.00 | 86 | 1010.2 |
| 20260505073023 | 11 | 171 | 0.0 | 1.6 | 0.00 | 0.00 | 0.00 | 86 | 1010.1 |
| 20260505071522 | 11 | 204 | 0.0 | 1.6 | 0.00 | 0.00 | 0.00 | 86 | 1010.0 |
| 20260505070020 | 11 | 204 | 0.0 | 3.2 | 0.00 | 0.00 | 0.00 | 86 | 1010.1 |
| 20260505064517 | 11 | 110 | 0.0 | 3.2 | 0.00 | 0.00 | 0.00 | 86 | 1010.1 |
| 20260505063017 | 11 | 188 | 0.0 | 6.4 | 0.00 | 0.00 | 0.00 | 86 | 1010.2 |
| 20260505061513 | 11 | 127 | 0.0 | 4.8 | 0.00 | 0.00 | 0.00 | 85 | 1010.3 |
| 20260505060012 | 11 | 172 | 0.0 | 4.8 | 0.00 | 0.00 | 0.00 | 85 | 1010.3 |
| 20260505054510 | 11 | 108 | 0.0 | 11.3 | 0.00 | 0.00 | 0.00 | 84 | 1010.4 |
| 20260505053008 | 11 | 138 | 0.0 | 6.4 | 0.00 | 0.00 | 0.00 | 83 | 1010.4 |
| 20260505051516 | 12 | 194 | 0.0 | 6.4 | 0.00 | 0.00 | 0.00 | 81 | 1010.5 |
| 20260505041555 | 13 | 195 | 1.6 | 8.0 | 0.00 | 0.00 | 0.00 | 76 | 1010.7 |
| 20260505040050 | 13 | 186 | 1.6 | 6.4 | 0.00 | 0.00 | 0.00 | 74 | 1010.8 |
| 20260505034549 | 13 | 193 | 1.6 | 8.0 | 0.00 | 0.00 | 0.00 | 72 | 1010.9 |
| 20260505033048 | 14 | 192 | 0.0 | 4.8 | 0.00 | 0.00 | 0.00 | 71 | 1010.8 |
| 20260505031554 | 14 | 147 | 3.2 | 8.0 | 0.00 | 0.00 | 0.00 | 71 | 1010.8 |
| 20260505030047 | 15 | 153 | 3.2 | 9.7 | 0.00 | 0.00 | 0.00 | 69 | 1010.9 |
| 20260505024552 | 14 | 192 | 3.2 | 11.3 | 0.00 | 0.00 | 0.00 | 71 | 1010.9 |
| 20260505023046 | 14 | 238 | 0.0 | 4.8 | 0.00 | 0.00 | 0.00 | 70 | 1011.0 |
| 20260505021550 | 14 | 198 | 1.6 | 8.0 | 0.00 | 0.00 | 0.00 | 71 | 1011.1 |
| 20260505020045 | 14 | 131 | 1.6 | 9.7 | 0.00 | 0.00 | 0.00 | 69 | 1011.0 |
| 20260505014546 | 16 | 150 | 1.6 | 9.7 | 0.00 | 0.00 | 0.00 | 64 | 1010.9 |
| 20260505013045 | 16 | 216 | 3.2 | 17.7 | 0.00 | 0.00 | 0.00 | 60 | 1010.9 |
| 20260505011543 | 16 | 218 | 6.4 | 14.5 | 0.00 | 0.00 | 0.00 | 61 | 1010.6 |
| 20260505010053 | 15 | 183 | 3.2 | 12.9 | 0.00 | 0.00 | 0.00 | 65 | 1010.4 |
| 20260505004542 | 15 | 227 | 3.2 | 14.5 | 0.00 | 0.00 | 0.00 | 66 | 1010.3 |
| 20260505003041 | 14 | 156 | 1.6 | 9.7 | 0.00 | 0.00 | 0.00 | 73 | 1010.2 |
| 20260505001643 | 13 | 128 | 0.0 | 12.9 | 0.00 | 0.00 | 0.00 | 76 | 1010.0 |
| 20260505000045 | 14 | 109 | 1.6 | 9.7 | 0.00 | 0.00 | 0.00 | 74 | 1009.6 |
| 20260504234539 | 14 | 195 | 3.2 | 14.5 | 0.00 | 0.00 | 0.00 | 74 | 1009.4 |
| 20260504233047 | 14 | 127 | 3.2 | 14.5 | 0.00 | 0.00 | 0.00 | 75 | 1009.2 |
| 20260504231543 | 15 | 142 | 8.0 | 19.3 | 0.00 | 0.00 | 0.00 | 74 | 1009.2 |
| 20260504230048 | 15 | 143 | 6.4 | 19.3 | 0.00 | 0.00 | 0.00 | 73 | 1009.1 |
| 20260504224536 | 15 | 152 | 6.4 | 17.7 | 0.00 | 0.00 | 0.00 | 72 | 1009.2 |
| 20260504223034 | 16 | 180 | 3.2 | 19.3 | 0.00 | 0.00 | 0.00 | 70 | 1009.1 |
| 20260504221532 | 16 | 51 | 9.7 | 22.5 | 0.00 | 0.00 | 0.00 | 69 | 1009.3 |
| 20260504220031 | 16 | 122 | 4.8 | 20.9 | 0.00 | 0.00 | 0.00 | 70 | 1009.3 |
| 20260504214528 | 16 | 148 | 6.4 | 19.3 | 0.00 | 0.00 | 0.00 | 69 | 1009.4 |
| 20260504213027 | 16 | 114 | 3.2 | 19.3 | 0.00 | 0.00 | 0.00 | 67 | 1009.7 |
| 20260504211526 | 16 | 167 | 8.0 | 24.1 | 0.00 | 0.00 | 0.00 | 67 | 1009.7 |
| 20260504210032 | 16 | 220 | 6.4 | 22.5 | 0.00 | 0.00 | 0.00 | 65 | 1009.7 |
| 20260504204524 | 17 | 136 | 4.8 | 16.1 | 0.00 | 0.00 | 0.00 | 62 | 1009.6 |
| 20260504203034 | 17 | 102 | 3.2 | 17.7 | 0.00 | 0.00 | 0.00 | 62 | 1009.7 |
| 20260504201521 | 18 | 196 | 4.8 | 14.5 | 0.00 | 0.00 | 0.00 | 61 | 1009.8 |
| 20260504200020 | 18 | 142 | 8.0 | 17.7 | 0.00 | 0.00 | 0.00 | 59 | 1009.9 |
| 20260504194518 | 18 | 93 | 4.8 | 16.1 | 0.00 | 0.00 | 0.00 | 57 | 1009.9 |
| 20260504193018 | 19 | 196 | 4.8 | 17.7 | 0.00 | 0.00 | 0.00 | 55 | 1010.1 |
| 20260504191523 | 20 | 164 | 6.4 | 14.5 | 0.00 | 0.00 | 0.00 | 52 | 1010.2 |
| 20260504190013 | 22 | 200 | 8.0 | 24.1 | 0.00 | 0.00 | 0.00 | 36 | 1010.3 |
| 20260504184509 | 21 | 273 | 8.0 | 22.5 | 0.00 | 0.00 | 0.00 | 36 | 1010.5 |
| 20260504183007 | 21 | 145 | 9.7 | 19.3 | 0.00 | 0.00 | 0.00 | 36 | 1010.7 |
| 20260504181505 | 21 | 207 | 4.8 | 22.5 | 0.00 | 0.00 | 0.00 | 36 | 1010.9 |
| 20260504180006 | 21 | 223 | 8.0 | 24.1 | 0.00 | 0.00 | 0.00 | 37 | 1011.1 |
| 20260504174502 | 21 | 211 | 8.0 | 19.3 | 0.00 | 0.00 | 0.00 | 37 | 1011.3 |
| 20260504173103 | 21 | 281 | 8.0 | 20.9 | 0.00 | 0.00 | 0.00 | 37 | 1011.4 |
| 20260504171559 | 20 | 219 | 8.0 | 27.4 | 0.00 | 0.00 | 0.00 | 37 | 1011.5 |